x

8419317 - Wells, Me (welm1) Weather Station

10:18 - Sat 24th Jun 2017 All times are EDT. -4 hours from GMT.

  • Wind
    6mph, 9mph gusts
  • Sea Temp 50°f
  • Aire Temp 74°f
  • Sea Pressure 1008.3mb
  • 8419317 - Wells, Me
  • 8419317 - Wells, Me

More Historic Weather Station data

Upgrade to MSW Pro to gain access to the past 30 days of data for over 8000 Wavebouys and Weather Stations around the globe.

Join Pro

Comparision Forecast

View Surf forecast
   
sáb 06/24 10:18 6 9 mph 1008.3mb 50f 74f
10:12 6 10 mph 1008.3mb 50f 74f
10:06 6 11 mph 1008.1mb 50f 74f
10:00 7 10 mph 1008.1mb 50f 74f
9:54 7 10 mph 1008mb 50f 74f
9:48 6 8 mph 1007.8mb 50f 74f
9:42 5 7 mph 1007.5mb 50f 74f
9:36 5 7 mph 1007.5mb 50f 74f
9:30 3 7 mph 1007.4mb 50f 74f
9:24 3 7 mph 1007.3mb 50f 74f
9:18 3 5 mph 1007.1mb 50f 74f
9:12 3 5 mph 1007mb 50f 75f
9:06 3 5 mph 1006.9mb 50f 76f
9:00 3 6 mph 1006.7mb 50f 76f
8:54 3 6 mph 1006.5mb 50f 77f
8:48 3 6 mph 1006.4mb 50f 77f
8:42 3 7 mph 1006.3mb 50f 77f
8:36 3 7 mph 1006.1mb 51f 78f
8:30 5 7 mph 1006mb 53f 78f
8:24 7 10 mph 1006mb 54f 79f
8:18 6 10 mph 1005.9mb 57f 79f
8:12 6 8 mph 1005.8mb 60f 79f
8:06 3 6 mph 1005.8mb 61f 80f
8:00 5 6 mph 1005.7mb 62f 80f
7:54 5 8 mph 1005.7mb 63f 81f
7:48 6 9 mph 1005.7mb 63f 81f
7:42 6 8 mph 1005.6mb 63f 81f
7:36 6 9 mph 1005.6mb 63f 82f
7:30 6 9 mph 1005.5mb 62f 82f
7:24 7 11 mph 1005.4mb 62f 82f
7:18 6 9 mph 1005.4mb 62f 82f
7:12 5 10 mph 1005.2mb 62f 83f
7:06 7 11 mph 1005.2mb 62f 83f
7:00 7 11 mph 1005mb 62f 83f
6:54 6 9 mph 1004.9mb 62f 83f
6:48 7 14 mph 1004.8mb 61f 83f
6:42 10 14 mph 1004.7mb 61f 83f
6:36 9 16 mph 1004.7mb 61f 83f
6:30 7 10 mph 1004.5mb 60f 83f
6:24 8 11 mph 1004.4mb 60f 84f
6:18 8 16 mph 1004.3mb 60f 84f
6:12 9 15 mph 1004.2mb 59f 83f
6:06 9 17 mph 1004.1mb 59f 84f
6:00 9 15 mph 1003.9mb 59f 84f
5:54 11 17 mph 1003.8mb 59f 84f
5:48 6 11 mph 1003.8mb 58f 85f
5:42 7 10 mph 1003.6mb 58f 84f
5:36 6 11 mph 1003.6mb 58f 84f
5:30 6 10 mph 1003.5mb 58f 84f
5:24 7 13 mph 1003.6mb 58f 83f
5:18 7 10 mph 1003.5mb 58f 83f
5:12 8 14 mph 1003.4mb 58f 83f
5:06 8 11 mph 1003.4mb 58f 82f
5:00 6 11 mph 1003.3mb 58f 83f
4:54 6 15 mph 1003.2mb 58f 83f
4:48 11 18 mph 1003.1mb 59f 83f
4:42 9 17 mph 1003.1mb 59f 83f
4:36 11 16 mph 1002.9mb 59f 83f
4:30 13 18 mph 1002.7mb 59f 83f
4:24 14 21 mph 1002.7mb 58f 83f
4:18 15 24 mph 1002.7mb 58f 83f
4:12 14 23 mph 1002.4mb 58f 83f
4:06 10 17 mph 1002.3mb 57f 83f
4:00 16 20 mph 1002.2mb 57f 83f
3:54 14 22 mph 1002.1mb 57f 83f
3:48 14 21 mph 1002mb 56f 84f
3:42 15 20 mph 1002mb 56f 84f
3:36 15 25 mph 1001.9mb 55f 83f
3:30 14 20 mph 1002mb 57f 84f
3:24 10 21 mph 1001.8mb 58f 84f
3:18 15 22 mph 1001.6mb 57f 83f
3:12 11 21 mph 1001.7mb 57f 83f
3:06 16 24 mph 1001.6mb 57f 82f
3:00 15 21 mph 1001.3mb 57f 83f
2:54 13 18 mph 1001.3mb 56f 83f
2:48 9 20 mph 1001.1mb 56f 84f
2:42 16 20 mph 1001mb 56f 83f
2:36 8 17 mph 1001mb 55f 82f
2:30 13 17 mph 1000.9mb 55f 83f
2:24 10 15 mph 1000.9mb 55f 83f
2:18 14 21 mph 1000.8mb 55f 82f
2:12 10 18 mph 1000.8mb 55f 82f
2:06 11 18 mph 1000.9mb 55f 82f
2:00 13 18 mph 1000.8mb 54f 81f
1:54 14 20 mph 1000.7mb 54f 81f
1:48 10 14 mph 1000.7mb 54f 81f
1:42 8 13 mph 1000.6mb 53f 82f
1:36 8 14 mph 1000.7mb 53f 82f
1:30 7 9 mph 1000.6mb 53f 81f
1:24 8 11 mph 1000.6mb 52f 81f
1:18 2 8 mph 1000.6mb 52f 75f
1:12 5 8 mph 1000.6mb 52f 73f
1:06 5 6 mph 1000.6mb 52f 73f
1:00 3 5 mph 1000.7mb 52f 71f
12:54 2 3 mph 1000.6mb 51f 71f
12:48 3 6 mph 1000.4mb 51f 68f
12:42 5 7 mph 1000.4mb 51f 66f
12:36 7 10 mph 1000.2mb 51f 65f
12:30 5 10 mph 1000.2mb 51f 64f
12:24 9 10 mph 999.9mb 51f 65f
12:18 10 13 mph 999.9mb 51f 68f
12:12 7 9 mph 1000.1mb 51f 74f
12:06 6 10 mph 999.9mb 51f 81f
12:00 5 6 mph 999.9mb 51f 81f
11:54 6 9 mph 1000.1mb 51f 80f
11:48 6 9 mph 1000mb 51f 81f
11:42 3 11 mph 1000mb 51f 80f
11:36 9 13 mph 999.9mb 51f 80f
11:30 7 15 mph 1000mb 51f 80f
11:24 7 14 mph 1000.1mb 51f 80f
11:18 7 13 mph 1000.1mb 51f 80f
11:12 9 14 mph 1000mb 51f 79f
11:06 7 9 mph 1000mb 51f 79f
11:00 8 10 mph 1000mb 51f 78f
10:54 6 10 mph 1000mb 51f 78f
10:48 6 9 mph 1000mb 51f 77f
10:42 5 9 mph 1000mb 52f 77f
10:36 3 8 mph 1000mb 52f 77f
10:30 5 8 mph 999.9mb 52f 76f
10:24 6 9 mph 999.9mb 52f 76f
10:18 8 10 mph 999.9mb 52f 76f
10:12 7 11 mph 999.9mb 52f 76f
10:06 7 11 mph 999.9mb 52f 76f
10:00 9 16 mph 999.8mb 52f 76f
9:54 9 14 mph 999.6mb 52f 76f
9:48 10 15 mph 999.5mb 52f 76f
9:42 10 15 mph 999.4mb 52f 76f
9:36 8 11 mph 999.4mb 51f 77f
9:30 7 16 mph 999.4mb 51f 76f
9:24 10 15 mph 999.4mb 51f 76f
9:18 8 15 mph 999.4mb 51f 76f
9:12 10 15 mph 999.2mb 51f 77f
9:06 8 15 mph 999mb 51f 77f
9:00 7 14 mph 998.8mb 51f 77f
8:48 9 20 mph 998.7mb 51f 77f
8:42 11 17 mph 998.7mb 52f 77f
8:36 10 18 mph 998.7mb 53f 77f
8:30 15 21 mph 998.7mb 53f 77f
8:24 9 14 mph 998.7mb 54f 76f
8:18 10 16 mph 998.8mb 55f 76f
8:12 10 15 mph 998.8mb 56f 76f
8:06 9 17 mph 998.6mb 56f 76f
8:00 11 16 mph 998.7mb 56f 76f
7:54 10 16 mph 998.7mb 56f 76f
7:48 10 16 mph 998.7mb 56f 75f
7:42 10 20 mph 998.7mb 56f 75f
7:36 9 15 mph 998.7mb 56f 74f
7:30 8 15 mph 998.7mb 56f 73f
7:24 6 10 mph 998.6mb 56f 70f
7:18 6 8 mph 998.6mb 56f 62f
7:12 3 5 mph 998.6mb 56f 63f
7:06 3 7 mph 998.7mb 56f 64f
7:00 5 7 mph 998.7mb 56f 62f
6:54 5 7 mph 998.7mb 56f 62f
6:48 6 7 mph 998.7mb 56f 62f
6:42 6 7 mph 998.5mb 55f 63f
6:36 6 10 mph 998.6mb 55f 62f
6:30 8 10 mph 998.6mb 55f 63f
6:24 6 10 mph 998.5mb 55f 64f
6:18 8 10 mph 998.6mb 55f 63f
6:12 6 8 mph 998.5mb 55f 65f
6:06 8 10 mph 998.4mb 55f 64f
6:00 6 9 mph 998.3mb 55f 65f
5:54 9 10 mph 998.4mb 55f 64f
5:48 8 9 mph 998.3mb 55f 64f
5:42 7 8 mph 998.3mb 55f 64f
5:36 6 7 mph 998.2mb 55f 64f
5:30 6 7 mph 998.2mb 55f 62f
5:24 6 7 mph 998.2mb 55f 63f
5:18 6 7 mph 998.1mb 55f 64f
5:12 6 7 mph 998.1mb 55f 63f
5:06 7 9 mph 998.1mb 54f 62f
5:00 7 8 mph 998.1mb 54f 61f
4:54 3 5 mph 998mb 54f 63f
4:48 3 5 mph 997.9mb 54f 63f
4:42 1 6 mph 997.7mb 54f 62f
4:36 3 5 mph 997.9mb 54f 63f
4:30 3 7 mph 998mb 54f 62f
4:24 7 9 mph 998mb 54f 62f
4:18 9 10 mph 998.1mb 54f 60f
4:12 6 8 mph 998.1mb 55f 60f
4:06 6 7 mph 998.1mb 55f 60f
4:00  -  1 mph 998mb 54f 60f
3:54 1 3 mph 998.2mb 54f 60f
3:48 2 5 mph 998.3mb 54f 60f
3:42 2 3 mph 998.4mb 54f 60f
3:36 3 3 mph 998.4mb 54f 60f
3:30 1 3 mph 998.7mb 54f 62f
3:24 3 6 mph 998.8mb 54f 61f
3:18 5 6 mph 998.9mb 53f 60f
3:12 3 5 mph 998.8mb 53f 61f
3:06 3 6 mph 999mb 53f 60f
3:00 2 6 mph 998.9mb 53f 60f
2:48 2 2 mph 998.9mb 53f 62f
2:42 1 1 mph 999.1mb 53f 62f
2:36 1 5 mph 999.2mb 53f 61f
2:30 1 3 mph 999.2mb 53f 59f
2:24 3 5 mph 999.3mb 53f 60f
2:18  -  2 mph 999.3mb 53f 60f
2:12 1 5 mph 999.4mb 53f 60f
2:06 3 5 mph 999.5mb 53f 60f
2:00 3 3 mph 999.5mb 53f 59f
1:54 3 5 mph 999.7mb 53f 57f
1:48 2 3 mph 999.9mb 53f 58f
1:42 3 3 mph 1000mb 53f 58f
1:36 2 3 mph 1000.1mb 53f 57f
1:30 3 3 mph 1000mb 53f 58f
1:24 2 3 mph 1000.1mb 53f 57f
1:18  -  2 mph 1000.2mb 53f 57f
1:12 2 5 mph 1000.3mb 52f 57f
1:06 3 5 mph 1000.3mb 52f 58f
1:00 2 3 mph 1000.3mb 52f 58f
12:54 2 3 mph 1000.4mb 52f 58f
12:48 3 6 mph 1000.4mb 52f 58f
12:42 5 6 mph 1000.6mb 52f 58f
12:36 2 6 mph 1000.7mb 52f 58f
12:30 5 6 mph 1000.7mb 52f 59f
12:24 6 7 mph 1000.9mb 52f 61f
12:18 6 8 mph 1000.8mb 52f 60f
12:12 8 10 mph 1000.9mb 52f 59f
12:06 2 5 mph 1000.9mb 52f 61f
12:00 2 5 mph 1000.9mb 52f 61f
vie 06/23 11:54 6 8 mph 1001mb 52f 61f
11:48 8 9 mph 1001mb 52f 60f
11:42 5 6 mph 1001.1mb 52f 60f
11:36 5 6 mph 1001.1mb 52f 60f
11:30 7 8 mph 1001.1mb 52f 60f
11:24 9 11 mph 1001.3mb 52f 60f
11:18 11 13 mph 1001.2mb 52f 60f
11:12 11 13 mph 1001.2mb 52f 60f
11:06 10 11 mph 1001.1mb 52f 61f
11:00 9 11 mph 1001mb 52f 60f
10:54 10 11 mph 1000.9mb 52f 61f
10:48 6 10 mph 1001mb 52f 60f
10:42 9 14 mph 1001.1mb 52f 62f
10:36 13 13 mph 1001.2mb 52f 62f
10:30 11 13 mph 1001.2mb 52f 62f
10:24 7 9 mph 1001.2mb 52f 61f
10:18 3 6 mph 1001.3mb 52f 60f
10:12 3 10 mph 1001.3mb 52f 60f
10:06 11 14 mph 1001.3mb 52f 61f
10:00 14 15 mph 1001.2mb 52f 60f
9:54 13 14 mph 1001.2mb 52f 60f
9:48 11 13 mph 1001.3mb 52f 61f
9:42 11 13 mph 1001.4mb 52f 61f
9:36 10 13 mph 1001.3mb 52f 61f
9:30 11 13 mph 1001.3mb 52f 61f
9:24 10 14 mph 1001.2mb 52f 62f
9:18 10 14 mph 1001.3mb 52f 62f
9:12 11 14 mph 1001.3mb 52f 61f
9:06 13 15 mph 1001.2mb 53f 61f
9:00 14 16 mph 1001.1mb 53f 61f
8:54 16 18 mph 1001.1mb 53f 62f
8:48 17 20 mph 1001.2mb 53f 63f
8:42 16 18 mph 1001.3mb 53f 64f
8:36 16 20 mph 1001.3mb 53f 64f
8:30 15 18 mph 1001.4mb 53f 65f
8:24 16 21 mph 1001.4mb 53f 64f
8:18 16 20 mph 1001.4mb 53f 63f
8:12 16 18 mph 1001.5mb 53f 63f
8:06 15 18 mph 1001.5mb 53f 62f
8:00 15 17 mph 1001.6mb 54f 64f
7:54 14 17 mph 1001.7mb 54f 64f
7:48 17 21 mph 1001.7mb 53f 64f
7:42 17 20 mph 1001.8mb 53f 64f
7:36 17 21 mph 1001.7mb 54f 64f
7:30 14 18 mph 1001.8mb 56f 65f
7:24 17 24 mph 1001.9mb 57f 66f
7:18 20 23 mph 1001.9mb 57f 67f
7:12 18 20 mph 1001.9mb 57f 67f
7:06 18 22 mph 1001.8mb 58f 67f
7:00 18 22 mph 1001.7mb 58f 70f
6:54 18 22 mph 1001.8mb 58f 68f
6:48 18 22 mph 1001.9mb 58f 68f
6:42 20 22 mph 1001.9mb 58f 67f
6:36 18 21 mph 1001.9mb 58f 67f
6:30 20 21 mph 1001.9mb 58f 66f
6:24 16 18 mph 1002mb 58f 65f
6:18 15 18 mph 1002.2mb 58f 66f
6:12 14 16 mph 1002.2mb 58f 66f
6:06 10 13 mph 1002.3mb 58f 65f
6:00 8 11 mph 1002.4mb 58f 65f
5:54 8 10 mph 1002.5mb 58f 66f
5:48 5 7 mph 1002.6mb 58f 65f
5:42 5 6 mph 1002.7mb 58f 65f
5:36 3 5 mph 1002.8mb 57f 65f
5:30 5 5 mph 1002.9mb 57f 64f
5:24 3 6 mph 1003.1mb 57f 64f
5:18 5 6 mph 1003.1mb 57f 64f
5:12 5 7 mph 1003mb 57f 64f
5:06 7 7 mph 1003.1mb 57f 64f
5:00 5 6 mph 1003.2mb 55f 64f
4:54 6 6 mph 1003.2mb 55f 64f
4:48 1 1 mph 1003.4mb 55f 65f
4:42  -  1 mph 1003.5mb 56f 64f
4:36 1 1 mph 1003.6mb 55f 64f
4:30  -  2 mph 1003.7mb 55f 64f
4:24 1 2 mph 1003.8mb 56f 63f
4:18 1 3 mph 1003.9mb 57f 63f
4:12 3 5 mph 1004mb 57f 63f
4:06 5 5 mph 1004.1mb 56f 62f
4:00 5 6 mph 1004.2mb 56f 62f
3:54 3 6 mph 1004.5mb 56f 62f
3:48 6 7 mph 1004.7mb 56f 62f
3:42 3 6 mph 1004.9mb 55f 62f
3:36 5 7 mph 1005.2mb 55f 62f
3:30 6 9 mph 1005.6mb 55f 63f
3:24 8 9 mph 1005.6mb 55f 62f
3:18 6 9 mph 1005.4mb 54f 61f
3:12 7 9 mph 1005.3mb 54f 62f
3:06 7 9 mph 1005.4mb 54f 62f
3:00 7 9 mph 1005.2mb 54f 62f
2:54 8 9 mph 1005.3mb 53f 62f
2:48 7 9 mph 1005.5mb 53f 62f
2:42 6 8 mph 1005.6mb 53f 62f
2:36 7 8 mph 1005.6mb 53f 62f
2:30 6 7 mph 1005.7mb 53f 63f
2:24 5 7 mph 1005.9mb 53f 62f
2:18 7 7 mph 1005.9mb 53f 62f
2:12 5 7 mph 1006.1mb 53f 63f
2:06 7 9 mph 1006.1mb 53f 63f
2:00 7 9 mph 1006.1mb 52f 63f
1:54 3 5 mph 1006.1mb 52f 63f
1:48 3 6 mph 1006.1mb 53f 62f
1:42 5 7 mph 1006.2mb 52f 61f
1:36 5 6 mph 1006.4mb 52f 60f
1:30 5 7 mph 1006.6mb 52f 61f
1:24 5 6 mph 1006.7mb 52f 61f
1:18 5 7 mph 1006.7mb 52f 61f
1:12 6 7 mph 1006.8mb 52f 60f
1:06 6 6 mph 1007mb 52f 60f
1:00 3 5 mph 1007.3mb 51f 61f
12:54 3 5 mph 1007.3mb 51f 61f
12:48 3 5 mph 1007.3mb 51f 60f
12:42 3 5 mph 1007.5mb 51f 60f
12:36 3 5 mph 1007.6mb 51f 60f
12:30 3 6 mph 1007.7mb 51f 60f
12:24 5 6 mph 1007.6mb 51f 60f
12:18 3 5 mph 1007.7mb 51f 60f
12:12 5 6 mph 1007.7mb 51f 60f
12:06 5 6 mph 1007.8mb 50f 60f
12:00 3 5 mph 1008mb 50f 59f
11:54 5 6 mph 1008.1mb 50f 58f
11:48 5 6 mph 1008.3mb 50f 60f
11:42 5 6 mph 1008.4mb 50f 60f
11:36 5 6 mph 1008.6mb 50f 61f
11:30 3 5 mph 1008.6mb 50f 61f
11:24 2 3 mph 1008.5mb 50f 61f
11:18 2 2 mph 1008.7mb 50f 61f
11:12 1 3 mph 1008.7mb 50f 61f
11:06 2 6 mph 1008.6mb 50f 61f
11:00 3 6 mph 1008.5mb 50f 61f
10:54 3 6 mph 1008.7mb 50f 62f
10:48 5 6 mph 1008.8mb 50f 62f
10:42 5 6 mph 1008.8mb 50f 63f
10:36 5 8 mph 1008.8mb 50f 63f
10:30 6 8 mph 1008.6mb 50f 62f
10:24 6 8 mph 1008.6mb 50f 61f
10:18 3 5 mph 1008.6mb 50f 61f
10:12 5 5 mph 1008.6mb 50f 60f
10:06 5 6 mph 1008.7mb 50f 60f
10:00 3 5 mph 1008.7mb 50f 60f
9:54 5 5 mph 1008.8mb 50f 60f
9:48 3 6 mph 1008.8mb 50f 59f
9:42 6 6 mph 1008.8mb 50f 59f
9:36 3 6 mph 1008.9mb 50f 59f
9:30 2 3 mph 1009.1mb 50f 58f
9:24 3 6 mph 1009.1mb 50f 58f
9:18 5 7 mph 1009.2mb 50f 59f
9:12 6 6 mph 1009.3mb 50f 59f
9:06 5 7 mph 1009.2mb 50f 59f
9:00 6 7 mph 1009.3mb 50f 60f
8:54 3 3 mph 1009.3mb 50f 62f
8:48 3 3 mph 1009.4mb 50f 62f
8:42 3 5 mph 1009.4mb 50f 62f
8:36 3 3 mph 1009.4mb 50f 61f
8:30 3 5 mph 1009.5mb 50f 60f
8:24 6 6 mph 1009.4mb 50f 61f
8:18 5 6 mph 1009.5mb 50f 62f
8:12 6 6 mph 1009.3mb 50f 63f
8:06 5 6 mph 1009.4mb 50f 64f
8:00 3 5 mph 1009.4mb 51f 65f
7:54 5 6 mph 1009.4mb 51f 65f
7:48 6 7 mph 1009.2mb 52f 64f
7:42 6 7 mph 1009.2mb 52f 63f
7:36 3 3 mph 1009.1mb 53f 62f
7:30 1 2 mph 1009.1mb 54f 61f
7:24 2 2 mph 1008.9mb 54f 60f
7:18 2 3 mph 1009mb 54f 59f
7:12 2 3 mph 1008.9mb 54f 58f
7:06 3 5 mph 1008.9mb 54f 58f
7:00 3 3 mph 1008.9mb 54f 58f
6:54 2 3 mph 1009mb 54f 60f
6:48  -  1 mph 1009.2mb 54f 60f
6:42 1 1 mph 1009mb 54f 60f
6:36 1 1 mph 1009mb 54f 60f
6:30 1 1 mph 1009mb 54f 59f
6:24 1 2 mph 1009.1mb 54f 59f
6:18  -  1 mph 1009mb 54f 59f
6:12  -  1 mph 1009mb 54f 59f
6:06  -  2 mph 1008.9mb 54f 58f
6:00  -  1 mph 1008.9mb 54f 58f
5:54 1 3 mph 1008.9mb 54f 58f
5:48 1 2 mph 1008.9mb 54f 59f
5:42 2 2 mph 1008.9mb 53f 59f
5:36 1 2 mph 1009.1mb 53f 58f
5:30 1 1 mph 1009.1mb 53f 58f
5:24  -  1 mph 1009.1mb 53f 58f
5:18  -  0 mph 1009.1mb 53f 58f
5:12  -  0 mph 1008.9mb 53f 58f
5:06  -  1 mph 1008.9mb 53f 58f
5:00 1 2 mph 1008.8mb 53f 58f
4:54 3 3 mph 1008.8mb 53f 58f
4:48 3 6 mph 1008.8mb 53f 58f
4:42 6 6 mph 1008.8mb 53f 58f
4:36 2 3 mph 1008.9mb 52f 58f
4:30 2 3 mph 1008.8mb 52f 58f
4:24 2 3 mph 1008.8mb 52f 59f
4:18 3 3 mph 1008.9mb 52f 59f
4:12 2 2 mph 1009.1mb 52f 59f
4:06  -  2 mph 1009.1mb 52f 59f
4:00  -  2 mph 1009.2mb 52f 58f
3:54 2 2 mph 1009.1mb 52f 58f
3:48 1 2 mph 1009.1mb 52f 58f
3:42 2 2 mph 1009.4mb 52f 57f
3:36 2 3 mph 1009.4mb 52f 59f
3:30 3 3 mph 1009.2mb 52f 60f
3:24 2 2 mph 1009.3mb 52f 61f
3:18  -  1 mph 1009.5mb 52f 62f
3:12 1 2 mph 1009.5mb 52f 61f
3:06 2 2 mph 1009.4mb 52f 62f
3:00  -  1 mph 1009.6mb 52f 61f
2:54 1 2 mph 1009.8mb 52f 61f
2:48 1 2 mph 1010.1mb - -
2:42  -  1 mph 1010.2mb - -
2:36  -  1 mph 1010.3mb - -
2:30  -  1 mph 1010.4mb 51f 60f
2:24  -  0 mph 1010.4mb 51f 60f
2:18  -  1 mph 1010.5mb 51f 60f
2:12  -  1 mph 1010.5mb 51f 60f
2:06  -  1 mph 1010.6mb 51f 60f
2:00  -  2 mph 1010.7mb 51f 60f
1:54 1 2 mph 1010.8mb 52f 59f
1:48 2 2 mph 1010.9mb 52f -
1:42 2 2 mph 1010.9mb 51f -
1:36 3 3 mph 1011mb 51f -
1:30 3 3 mph 1011.1mb 51f 57f
1:24 3 3 mph 1011.1mb 51f 57f
1:18 2 2 mph 1011.2mb 51f 57f
1:12 1 1 mph 1011.2mb 51f 57f
1:06  -  2 mph 1011.2mb 51f 57f
1:00 1 2 mph 1011.4mb 51f 57f
12:54 2 2 mph 1011.6mb 50f 57f
12:48 2 2 mph 1011.7mb 50f 57f
12:42 2 3 mph 1011.7mb 50f 57f
12:36 2 3 mph 1011.7mb 50f 57f
12:30  -  1 mph 1011.8mb 50f 58f
12:24  -  1 mph 1011.9mb 50f 58f
12:18  -  1 mph 1011.9mb 50f 58f
12:12 1 1 mph 1011.9mb 50f 58f
12:06  -  1 mph 1011.9mb 50f 57f
12:00  -  3 mph 1011.9mb 50f 57f
jue 06/22 11:54 3 5 mph 1012mb 49f 57f
11:48 3 5 mph 1011.9mb 49f 58f
11:42 2 3 mph 1012mb 49f 58f
11:36  -  3 mph 1012mb 49f 58f
11:30 3 3 mph 1012mb 49f 58f
11:24 2 3 mph 1012mb 49f 57f
11:18 1 1 mph 1012.1mb 49f 57f
11:12  -  1 mph 1012.1mb 49f 58f
11:06  -  1 mph 1012.1mb 49f 58f
11:00 1 2 mph 1012.1mb 49f 57f
10:54 2 2 mph 1012.2mb 49f 58f
10:48 2 2 mph 1012.2mb 49f 57f
10:42  -  2 mph 1012.1mb 49f 57f
10:36  -  3 mph 1012.1mb 49f 57f
10:30 3 5 mph 1011.9mb 49f 57f
10:24 6 9 mph 1012mb 49f 57f
10:18 2 6 mph 1012.1mb 49f 58f
10:12  -  2 mph 1012.2mb 49f 59f
10:06 2 3 mph 1012.2mb 49f 59f
10:00 3 3 mph 1012.1mb 49f 59f
9:54 3 3 mph 1012.2mb 49f 58f
9:48 3 3 mph 1012.1mb 49f 58f
9:42 1 2 mph 1012mb 49f 58f
9:36 2 2 mph 1011.9mb 49f 58f
9:30 2 2 mph 1011.9mb 49f 58f
9:24  -  0 mph 1012mb 49f 58f
9:18  -  0 mph 1012mb 49f 58f
9:12  -  1 mph 1011.9mb 49f 58f
9:06  -  1 mph 1011.9mb 49f 58f
9:00  -  1 mph 1011.9mb 49f 57f
8:54 1 5 mph 1011.8mb 50f 58f
8:48 5 6 mph 1011.9mb 50f 59f
8:42 6 6 mph 1012mb 50f 59f
8:36 3 6 mph 1011.8mb 50f 61f
8:30 2 2 mph 1011.9mb 50f 62f
8:24 1 2 mph 1012mb 50f 62f
8:18 1 2 mph 1012.1mb 50f 63f
8:12  -  1 mph 1012.1mb 50f 64f
8:06  -  1 mph 1012.1mb 50f 64f
8:00  -  3 mph 1012.1mb 50f 64f
7:54 3 5 mph 1012.1mb 50f 65f
7:48 3 7 mph 1011.9mb 50f 65f
7:42 6 8 mph 1012mb 50f 64f
7:36 5 8 mph 1012mb 50f 63f
7:30 8 9 mph 1011.8mb 49f 62f
7:24 9 11 mph 1011.8mb 49f 63f
7:18 11 13 mph 1011.6mb 49f 63f
7:12 10 14 mph 1011.6mb 49f 63f
7:06 11 15 mph 1011.6mb 49f 63f
7:00 13 14 mph 1011.6mb 49f 64f
6:54 11 14 mph 1011.6mb 49f 65f
6:48 14 15 mph 1011.6mb 50f 65f
6:42 14 15 mph 1011.5mb 52f 66f
6:36 14 15 mph 1011.5mb 53f 67f
6:30 14 15 mph 1011.4mb 55f 67f
6:24 14 16 mph 1011.3mb 57f 67f
6:18 15 17 mph 1011.2mb 58f 67f
6:12 15 17 mph 1011.2mb 58f 68f
6:06 14 16 mph 1011.2mb 58f 69f
6:00 15 16 mph 1011.3mb 58f 69f
5:54 14 16 mph 1011.4mb 58f 70f
5:48 13 16 mph 1011.5mb 58f 70f
5:42 14 18 mph 1011.4mb 58f 69f
5:36 16 18 mph 1011.5mb 58f 67f
5:30 16 20 mph 1011.5mb 58f 68f
5:24 16 21 mph 1011.8mb 58f 68f
5:18 18 21 mph 1011.8mb 58f 67f
5:12 18 21 mph 1011.8mb 58f 68f
5:06 20 22 mph 1011.9mb 58f 68f
5:00 18 22 mph 1011.8mb 58f 68f
4:54 21 23 mph 1011.9mb 57f 69f
4:48 20 23 mph 1011.8mb 57f 68f
4:42 20 24 mph 1011.8mb 56f 68f
4:36 21 23 mph 1011.7mb 56f 68f
4:30 17 21 mph 1011.8mb 56f 67f
4:24 18 21 mph 1011.8mb 55f 66f
4:18 21 24 mph 1011.8mb 55f 66f
4:12 17 20 mph 1011.9mb 55f 66f
4:06 17 20 mph 1011.8mb 55f 67f
4:00 16 20 mph 1011.9mb 55f 65f
3:54 16 20 mph 1011.7mb 54f 65f
3:48 14 18 mph 1011.7mb 54f 65f
3:42 15 18 mph 1011.8mb 54f 66f
3:36 15 18 mph 1011.7mb 54f 66f
3:30 10 14 mph 1011.7mb 54f 68f
3:24 14 17 mph 1011.7mb 54f 67f
3:18 10 18 mph 1011.6mb 54f 69f
3:12 13 14 mph 1011.7mb 54f 68f
3:06 7 11 mph 1011.8mb 54f 71f
3:00 9 11 mph 1011.7mb 54f 79f
2:54 7 15 mph 1011.7mb 54f 79f
2:48 9 16 mph 1011.8mb 55f 80f
2:42 7 14 mph 1011.8mb 54f 79f
2:36 8 11 mph 1011.9mb 54f 79f
2:30 9 17 mph 1011.9mb 54f 79f
2:24 9 14 mph 1012.2mb 54f 79f
2:18 8 14 mph 1012.2mb 53f 79f
2:12 10 16 mph 1012.3mb 53f 79f
2:06 7 15 mph 1012.3mb 53f 80f
2:00 9 16 mph 1012.4mb 52f 79f
1:54 7 11 mph 1012.5mb 53f 78f
1:48 8 16 mph 1012.5mb 52f 77f
1:42 9 14 mph 1012.6mb 52f 78f
1:36 9 14 mph 1012.7mb 51f 78f
1:30 10 17 mph 1012.7mb 51f 78f
1:24 14 21 mph 1012.6mb 51f 78f
1:18 9 14 mph 1012.7mb 52f 78f
1:12 8 16 mph 1012.7mb 52f 78f
1:06 13 22 mph 1012.8mb 52f 78f
1:00 10 15 mph 1012.8mb 52f 78f
12:54 10 18 mph 1012.9mb 51f 77f
12:48 11 15 mph 1013mb 51f 77f
12:42 8 15 mph 1013mb 51f 78f
12:36 11 16 mph 1013mb 51f 78f
12:30 9 20 mph 1013mb 51f 77f
12:24 8 16 mph 1013.1mb 50f 77f
12:18 7 14 mph 1013mb 50f 76f
12:12 8 15 mph 1013.2mb 50f 77f
12:06 6 14 mph 1013.3mb 50f 76f
12:00 8 16 mph 1013.3mb 50f 76f
11:54 11 17 mph 1013.3mb 50f 76f
11:48 9 13 mph 1013.3mb 49f 75f
11:42 9 13 mph 1013.4mb 49f 76f
11:36 7 16 mph 1013.4mb 49f 76f
11:30 11 16 mph 1013.3mb 49f 76f
11:24 7 10 mph 1013.4mb 49f 75f
11:18 8 11 mph 1013.4mb 49f 74f
11:12 7 10 mph 1013.3mb 49f 74f
11:06 5 13 mph 1013.2mb 49f 74f
11:00 8 13 mph 1013.3mb 49f 75f
10:54 6 10 mph 1013.3mb 49f 74f
10:48 6 13 mph 1013.4mb 49f 75f
10:42 9 15 mph 1013.6mb 49f 75f
10:36 6 11 mph 1013.7mb 49f 74f
10:30 7 16 mph 1013.9mb 49f 74f
10:24 11 16 mph 1013.9mb 49f 74f
10:18 8 13 mph 1013.9mb 49f 73f
10:12 5 9 mph 1013.9mb 49f 73f
10:06 5 11 mph 1014mb 49f 73f
10:00 7 13 mph 1014.2mb 49f 72f
9:54 6 10 mph 1014.3mb 49f 72f
9:48 8 14 mph 1014.3mb 49f 72f
9:42 10 14 mph 1014.5mb 49f 72f
9:36 8 14 mph 1014.5mb 49f 72f
9:30 8 14 mph 1014.5mb 49f 72f
9:24 6 13 mph 1014.4mb 49f 71f
9:18 7 14 mph 1014.5mb 48f 72f
9:12 9 11 mph 1014.4mb 48f 71f
9:06 6 11 mph 1014.4mb 48f 71f
9:00 7 10 mph 1014.4mb 48f 71f
8:54 7 11 mph 1014.3mb 48f 70f
8:48 7 13 mph 1014.2mb 48f 70f
8:42 6 10 mph 1014.3mb 48f 70f
8:36 8 9 mph 1014.3mb 48f 69f
8:30 6 10 mph 1014.4mb 48f 70f
8:24 7 14 mph 1014.4mb 48f 69f
8:18 9 13 mph 1014.4mb 48f 69f
8:12 8 14 mph 1014.3mb 48f 69f
8:06 7 14 mph 1014.2mb 48f 69f
8:00 8 13 mph 1014.3mb 48f 68f
7:54 8 11 mph 1014.1mb 48f 68f
7:48 7 10 mph 1014mb 48f 68f
7:42 7 10 mph 1014mb 48f 68f
7:36 6 8 mph 1014mb 48f 67f
7:30 5 6 mph 1014.1mb 48f 67f
7:24 5 8 mph 1013.9mb 48f 66f
7:18 6 8 mph 1013.9mb 49f 66f
7:12 6 11 mph 1014mb 49f 65f
7:06 6 10 mph 1014mb 49f 65f
7:00 6 10 mph 1014mb 49f 64f
6:54 7 9 mph 1014mb 49f 63f
6:48 6 8 mph 1013.8mb 50f 63f
6:42 6 10 mph 1013.8mb 51f 63f
6:36 8 11 mph 1013.6mb 51f 63f
6:30 9 11 mph 1013.6mb 52f 63f
6:24 7 10 mph 1013.5mb 53f 62f
6:18 7 8 mph 1013.5mb 53f 62f
6:12 6 9 mph 1013.5mb 54f 62f
6:06 7 10 mph 1013.5mb 54f 62f
6:00 7 11 mph 1013.5mb 54f 61f
5:54 7 10 mph 1013.5mb 54f 61f
5:48 6 9 mph 1013.4mb 54f 60f
5:42 7 10 mph 1013.3mb 54f 60f
5:36 7 9 mph 1013.2mb 54f 60f
5:30 6 11 mph 1013.2mb 54f 60f
5:24 7 10 mph 1013.2mb 54f 60f
5:18 6 8 mph 1013.2mb 53f 60f
5:12 7 10 mph 1013.1mb 53f 61f
5:06 8 11 mph 1013.1mb 53f 61f
5:00 7 9 mph 1012.9mb 53f 61f
4:54 6 9 mph 1012.9mb 52f 61f
4:48 7 10 mph 1012.8mb 52f 61f
4:42 7 9 mph 1012.7mb 52f 60f
4:36 6 9 mph 1012.8mb 52f 60f
4:30 7 10 mph 1012.8mb 52f 60f
4:24 6 8 mph 1012.8mb 52f 60f
4:18 6 7 mph 1012.7mb 52f 60f
4:12 5 7 mph 1012.7mb 51f 61f
4:06 5 7 mph 1012.7mb 51f 61f
4:00 6 7 mph 1012.6mb 51f 61f
3:54 6 8 mph 1012.6mb 51f 62f
3:48 7 11 mph 1012.6mb 51f 62f
3:42 9 13 mph 1012.6mb 51f 62f
3:36 9 14 mph 1012.5mb 51f 62f
3:30 9 14 mph 1012.5mb 51f 62f
3:24 8 13 mph 1012.5mb 51f 61f
3:18 9 11 mph 1012.3mb 51f 61f
3:12 8 11 mph 1012.4mb 51f 61f
3:06 8 10 mph 1012.4mb 51f 61f
3:00 8 10 mph 1012.4mb 51f 61f
2:54 7 10 mph 1012.4mb 51f 61f
2:48 8 10 mph 1012.4mb - -
2:42 7 10 mph 1012.3mb - -
2:36 8 10 mph 1012.3mb - -
2:30 8 9 mph 1012.4mb 50f 62f
2:24 8 9 mph 1012.4mb 50f 62f
2:18 7 10 mph 1012.4mb 50f 62f
2:12 8 10 mph 1012.4mb 50f 63f
2:06 7 9 mph 1012.4mb 50f 63f
2:00 7 8 mph 1012.4mb 50f 63f
1:54 5 7 mph 1012.4mb 50f 63f
1:48 6 8 mph 1012.4mb 50f -
1:42 6 8 mph 1012.5mb 50f -
1:36 5 7 mph 1012.4mb 49f -
1:30 6 8 mph 1012.3mb 49f 64f
1:24 6 8 mph 1012.2mb 49f 64f
1:18 7 8 mph 1012.3mb 49f 64f
1:12 6 9 mph 1012.2mb 49f 64f
1:06 6 8 mph 1012.2mb 49f 64f
1:00 5 9 mph 1012.2mb 49f 64f
12:54 5 8 mph 1012.1mb 49f 65f
12:48 6 10 mph 1012.1mb 50f 65f
12:42 6 8 mph 1012.1mb 50f 65f
12:36 6 9 mph 1012.2mb 49f 65f
12:30 6 9 mph 1012.1mb 49f 65f
12:24 6 8 mph 1012.1mb 49f 65f
12:18 7 9 mph 1012mb 49f 66f
12:12 6 9 mph 1012mb 49f 66f
12:06 8 10 mph 1012mb 49f 66f
12:00 6 8 mph 1012mb 49f 66f
mié 06/21 11:54 6 10 mph 1012mb 48f 66f
11:48 6 8 mph 1011.9mb 48f 66f
11:42 6 10 mph 1011.9mb 48f 66f
11:36 3 9 mph 1011.8mb 48f 66f
11:30 6 8 mph 1011.8mb 48f 67f
11:24 6 10 mph 1011.6mb 47f 67f
11:18 7 13 mph 1011.6mb 48f 66f
11:12 7 11 mph 1011.4mb 48f 66f
11:06 6 9 mph 1011.4mb 47f 66f
11:00 6 8 mph 1011.4mb 47f 66f
10:54 6 7 mph 1011.3mb 47f 66f
10:48 6 8 mph 1011.4mb 47f 67f
10:42 6 7 mph 1011.3mb 47f 67f
10:36 5 7 mph 1011.3mb 47f 66f
10:30 6 7 mph 1011.2mb 47f 67f
10:24 6 7 mph 1011.3mb 47f 67f
10:18 6 7 mph 1011.3mb 47f 68f
10:12 5 7 mph 1011.3mb 47f 68f
10:06 6 8 mph 1011.4mb 47f 69f
10:00 6 8 mph 1011.4mb 47f 69f
9:54 6 9 mph 1011.4mb 47f 69f
9:48 6 7 mph 1011.4mb 47f 69f
9:42 5 7 mph 1011.3mb 47f 69f
9:36 5 7 mph 1011.2mb 47f 69f
9:30 5 7 mph 1011mb 47f 69f
9:24 3 6 mph 1011mb 47f 69f
9:18 5 6 mph 1010.9mb 47f 69f
9:12 5 6 mph 1010.8mb 47f 70f
9:06 5 6 mph 1010.6mb 47f 70f
9:00 5 7 mph 1010.6mb 47f 70f
8:54 6 7 mph 1010.5mb 47f 71f
8:48 5 6 mph 1010.3mb 47f 71f
8:42 5 7 mph 1010.2mb 47f 71f
8:36 5 7 mph 1010.1mb 47f 72f
8:30 5 6 mph 1010.1mb 47f 72f
8:24 5 7 mph 1010.1mb 47f 73f
8:18 6 8 mph 1010.1mb 47f 73f
8:12 5 7 mph 1010.1mb 47f 74f
8:06 3 9 mph 1010mb 47f 74f
8:00 5 8 mph 1010mb 47f 75f
7:54 5 7 mph 1010mb 47f 75f
7:48 5 9 mph 1009.9mb 47f 76f
7:42 6 9 mph 1009.9mb 47f 76f
7:36 7 10 mph 1009.9mb 47f 76f
7:30 8 11 mph 1009.8mb 47f 76f
7:24 9 14 mph 1009.9mb 47f 76f
7:18 7 10 mph 1009.8mb 47f 76f
7:12 9 13 mph 1009.8mb 47f 77f
7:06 8 13 mph 1009.8mb 47f 77f
7:00 8 13 mph 1009.8mb 47f 77f
6:54 11 16 mph 1009.7mb 47f 77f
6:48 10 16 mph 1009.5mb 47f 76f
6:42 10 16 mph 1009.4mb 48f 77f
6:36 10 16 mph 1009.4mb 48f 78f
6:30 11 18 mph 1009.3mb 48f 77f
6:24 8 13 mph 1009.3mb 48f 78f
6:18 7 15 mph 1009.3mb 48f 78f
6:12 11 17 mph 1009.2mb 48f 77f
6:06 11 18 mph 1009.2mb 48f 78f
6:00 7 16 mph 1009mb 48f 78f
5:54 11 17 mph 1009mb 49f 78f
5:48 14 23 mph 1008.9mb 51f 78f
5:42 10 20 mph 1008.8mb 52f 78f
5:36 10 18 mph 1008.8mb 52f 78f
5:30 8 18 mph 1008.7mb 53f 78f
5:24 11 16 mph 1008.7mb 53f 78f
5:18 15 22 mph 1008.8mb 55f 78f
5:12 11 22 mph 1008.7mb 57f 78f
5:06 14 20 mph 1008.7mb 58f 78f
5:00 9 20 mph 1008.6mb 58f 79f
4:54 11 22 mph 1008.5mb 58f 79f
4:48 14 20 mph 1008.5mb 58f 78f
4:42 17 24 mph 1008.4mb 58f 78f
4:36 10 17 mph 1008.5mb 58f 78f
4:30 14 21 mph 1008.4mb 58f 78f
4:24 13 20 mph 1008.4mb 58f 79f
4:18 15 24 mph 1008.3mb 58f 79f
4:12 9 18 mph 1008.3mb 57f 79f
4:06 11 22 mph 1008.4mb 56f 79f
4:00 11 20 mph 1008.3mb 56f 79f
3:54 9 17 mph 1008.3mb 56f 80f
3:48 14 21 mph 1008.3mb 55f 79f
3:42 14 18 mph 1008.3mb 55f 78f
3:36 14 23 mph 1008.3mb 55f 78f
3:30 10 20 mph 1008.4mb 55f 80f
3:24 11 20 mph 1008.4mb 55f 80f
3:18 9 17 mph 1008.4mb 55f 79f
3:12 8 23 mph 1008.5mb 55f 80f
3:06 7 16 mph 1008.4mb 55f 79f
3:00 6 15 mph 1008.4mb 55f 80f
2:54 14 20 mph 1008.5mb 55f 79f
2:48 11 18 mph 1008.5mb 54f 79f
2:42 11 23 mph 1008.4mb 54f 78f
2:36 13 20 mph 1008.6mb 54f 79f
2:30 13 20 mph 1008.5mb 54f 78f
2:24 13 20 mph 1008.5mb 54f 78f
2:18 10 20 mph 1008.5mb 54f 78f
2:12 11 18 mph 1008.6mb 54f 78f
2:06 10 17 mph 1008.5mb 54f 78f
2:00 16 23 mph 1008.5mb 54f 79f
1:54 17 22 mph 1008.6mb 55f 78f
1:48 13 20 mph - 54f -
1:42 13 17 mph - 54f -
1:36 14 22 mph - 54f -
1:30 10 17 mph 1008.6mb 53f 79f
1:24 14 20 mph 1008.6mb 53f 78f
1:18 9 21 mph 1008.7mb 53f 78f
1:12 14 20 mph 1008.8mb 52f 78f
1:06 11 20 mph 1008.8mb 52f 79f
1:00 10 17 mph 1008.8mb 52f 80f
12:54 7 20 mph 1008.8mb 51f 79f
12:48 10 22 mph 1008.9mb 51f 79f
12:42 10 22 mph 1008.9mb 51f 79f
12:36 14 21 mph 1009mb 51f 79f
12:30 14 22 mph 1009.1mb 51f 78f
12:24 14 23 mph 1009.2mb 51f 78f
12:18 10 18 mph 1009.2mb 52f 78f
12:12 10 15 mph 1009.2mb 53f 78f
12:06 8 16 mph 1009.2mb 53f 78f
12:00 14 22 mph 1009.4mb 52f 78f
11:54 9 17 mph 1009.3mb 52f 78f
11:48 10 22 mph 1009.4mb 52f 78f
11:42 16 23 mph 1009.5mb 52f 78f
11:36 15 23 mph 1009.5mb 51f 77f
11:30 14 22 mph 1009.5mb 51f 78f
11:24 8 20 mph 1009.4mb 51f 78f
11:18 13 21 mph 1009.5mb 51f 78f
11:12 14 24 mph 1009.6mb 51f 77f
11:06 15 23 mph 1009.7mb 50f 77f
11:00 9 18 mph 1009.7mb 50f 77f
10:54 10 16 mph 1009.7mb 50f 77f
10:48 10 17 mph 1009.8mb 50f 77f
10:42 10 15 mph 1009.9mb 50f 76f
10:36 7 13 mph 1009.9mb 50f 72f
10:30 11 16 mph 1010mb 50f 67f
10:24 9 13 mph 1010.1mb 50f -
10:18 11 13 mph 1010.1mb 50f -
10:12 9 10 mph 1010.1mb 50f -
10:06 7 11 mph 1010.1mb 50f 75f
10:00 5 11 mph 1010.1mb 50f 75f
9:54 7 10 mph 1010.2mb 50f 75f
9:48 7 9 mph 1010.2mb 50f 74f
9:42 6 10 mph 1010.2mb 50f 74f
9:36 6 9 mph 1010.2mb 50f 73f
9:30 7 11 mph 1010.3mb 50f 73f
9:24 6 10 mph 1010.5mb 50f 73f
9:18 7 10 mph 1010.6mb 49f 73f
9:12 3 9 mph 1010.7mb 49f 74f
9:06 8 11 mph 1010.8mb 49f 73f
9:00 6 9 mph 1010.8mb 49f 72f
8:54 7 9 mph 1010.9mb 49f 73f
8:48 7 11 mph 1011.1mb 49f 72f
8:42 5 10 mph 1011.1mb 49f 72f
8:36 6 10 mph 1011.1mb 49f 72f
8:30 7 10 mph 1011.1mb 49f 72f
8:24 6 9 mph 1011.3mb 49f 71f
8:18 6 9 mph 1011.2mb 49f 71f
8:12 8 11 mph 1011.2mb 49f 71f
8:06 3 6 mph 1011.2mb 49f 70f
8:00 6 8 mph 1011.2mb 49f 70f
7:54 5 9 mph 1011.4mb 49f 69f
7:48 7 10 mph 1011.4mb 49f 69f
7:42 6 9 mph 1011.4mb 49f 69f
7:36 7 11 mph 1011.5mb 49f 68f
7:30 6 11 mph 1011.5mb 49f 68f
7:24 5 9 mph 1011.6mb 49f 68f
7:18 6 10 mph 1011.7mb 49f 68f
7:12 6 11 mph 1011.5mb 49f 68f
7:06 6 10 mph 1011.5mb 49f 68f
7:00 5 8 mph 1011.6mb 49f 68f
6:54 5 10 mph 1011.6mb 49f 67f
6:48 6 9 mph 1011.8mb 49f 67f
6:42 5 8 mph 1011.8mb 49f 66f
6:36 3 6 mph 1011.7mb 49f 65f
6:30  -  2 mph 1011.8mb 49f 62f
6:24  -  2 mph 1011.8mb 49f 63f
6:18 1 3 mph 1011.7mb 49f 62f
6:12 2 6 mph 1011.6mb 49f 62f
6:06 3 5 mph 1011.5mb 49f 61f
6:00 5 6 mph 1011.4mb 50f 62f
5:54 5 5 mph 1011.4mb 50f 62f
5:48 2 3 mph 1011.6mb 51f 61f
5:42 3 3 mph 1011.6mb 52f 61f
5:36 2 2 mph 1011.4mb 53f 60f
5:30  -  0 mph 1011.5mb 54f 60f
5:24  -  1 mph 1011.6mb 55f 60f
5:18 1 2 mph 1011.6mb 56f 60f
5:12 1 5 mph 1011.6mb 56f 60f
5:06 3 5 mph 1011.5mb 56f 61f
5:00 3 3 mph 1011.4mb 56f 61f
4:54 2 3 mph 1011.5mb 56f 61f
4:48 2 3 mph 1011.5mb 56f 61f
4:42 2 5 mph 1011.4mb 56f 61f
4:36 3 5 mph 1011.4mb 56f 61f
4:30 3 3 mph 1011.4mb 56f 61f
4:24 3 3 mph 1011.3mb 56f 61f
4:18 3 3 mph 1011.4mb 56f 61f
4:12 2 5 mph 1011.4mb 56f 60f
4:06 5 6 mph 1011.3mb 56f 61f
4:00 3 3 mph 1011.4mb 56f 60f
3:54 3 5 mph 1011.4mb 55f 59f
3:48  -  3 mph 1011.4mb 55f 58f
3:42 2 3 mph 1011.3mb 54f 59f
3:36 3 5 mph 1011.3mb 54f 59f
3:30 5 6 mph 1011.3mb 54f 60f